Regional Weather Roundup
Issued by NWS Cleveland, OH

Home | Current Version | Previous Version | Graphics & Text | Print | Product List | Glossary On
Versions: 1 2 3 4 5 6 7 8 9 10 11 12 13 14 15 16 17 18 19 20 21 22 23 24 25 26 27 28 29 30 31 32 33 34 35 36 37 38 39 40 41 42 43 44 45 46 47 48 49 50
000
ASUS41 KCLE 301812
RWRCLE
OHIO REGIONAL WEATHER ROUNDUP
NATIONAL WEATHER SERVICE WILMINGTON, OH
200 PM EDT THU MAR 30 2017

NOTE: "FAIR" INDICATES FEW OR NO CLOUDS BELOW 12,000 FEET WITH NO
SIGNIFICANT WEATHER AND/OR OBSTRUCTIONS TO VISIBILITY.

OHZ001>008-015>018-024>027-034-035-043-044-301900-
   NORTHWEST OHIO

CITY           SKY/WX    TMP DP  RH WIND       PRES   REMARKS
DEFIANCE       LGT RAIN  43  39  86 E17G25    29.77F
FINDLAY        CLOUDY    48  41  76 E17       29.77F
TOLEDO EXPRESS CLOUDY    41  39  93 E18G26    29.81F
TOLEDO EXEC    CLOUDY    42  39  89 E17G25    29.86S
LIMA           CLOUDY    52  47  83 E15       29.74F
$$

OHZ009>014-019>023-028>033-038-089-301900-
   NORTHEAST OHIO

CITY           SKY/WX    TMP DP  RH WIND       PRES   REMARKS
CLE-HOPKINS    TSTM      45  39  79 E16G25    29.88F
CLE-LAKEFRONT  LGT RAIN  44  38  79 E12       29.91F
CUY CO. ARPT   CLOUDY    43  39  87 E9        29.98R FOG
LORAIN-ELYRIA  LGT RAIN  43  39  86 E15       29.85F
ASHTABULA      LGT RAIN  38  36  92 E6        29.98R FOG
AKRON-CANTON   CLOUDY    50  39  66 E17G24    29.86F
WOOSTER        PTSUNNY   51  41  68 E16       29.86F
MANSFIELD      CLOUDY    52  43  71 E12       29.81F
YOUNGSTOWN     CLOUDY    43  37  79 E21G26    29.91F
$$

OHZ042-051>053-060>062-070>072-077>081-301900-
  SOUTHWEST OHIO

CITY           SKY/WX    TMP DP  RH WIND       PRES   REMARKS
CINC-COVINGTON PTSUNNY   77  52  41 S21G33    29.67F
CINC-LUNKEN    FAIR      76  53  44 S23G30    29.67F
HAMILTON       FAIR      76  56  49 MISG      29.68F
DAYTON         CLOUDY    68  52  56 E7        29.71F
WRIGHT-PAT AFB PTSUNNY   72  55  54 SE7       29.70F
DAYTON GENERAL FAIR      73  54  51 S15       29.68F
WILMINGTON     FAIR      72  56  57 S15G23    29.72F
$$

OHZ036-037-039>041-045>050-054>059-063>069-073>076-082>088-301900-
  CENTRAL AND SOUTHEAST OHIO

CITY           SKY/WX    TMP DP  RH WIND       PRES   REMARKS
COLUMBUS       PTSUNNY   69  52  54 VRB5      29.75F
OSU AIRPORT    FAIR      67  52  58 E5        29.75F
BOLTON FIELD   SUNNY     66  54  63 SE7       29.76F
RICKENBACK AFB FAIR      69  53  57 S10       29.73F
NEWARK         FAIR      68  51  54 SE7       29.77F
MARION         FAIR      58  48  69 E12       29.78F
LANCASTER      FAIR      71  54  54 VRB5      29.75F
ZANESVILLE     PTSUNNY   65  51  60 S8        29.80F
NEW PHILLY     FAIR      54  47  77 E8        29.86F
$$



USA.gov is the U.S. government's official web portal to all federal, state and local government web resources and services.